Location: Cassano d�Adda
(45.5333°N, 9.5167°E)
Time: 06:09:53
(UTC+00:00)

YAOGAN 6 - Pass Details

Date: 08 December 2019
Orbit: 466 x 504 km, 97.0° (Epoch: 21 January)

Event Time Altitude Azimuth Distance (km) Brightness Sun altitude
Rises 16:53:03 0° 145° (SE) 2,507 6.0 -12.6°
Reaches altitude 10° 16:55:12 10° 136° (SE) 1,640 5.0 -12.9°
Maximum altitude 16:58:24 33° 71° (ENE) 827 3.2 -13.4°
Drops below altitude 10° 17:01:39 10° 6° (N) 1,672 5.0 -14.0°
Sets 17:03:51 0° 357° (N) 2,565 6.1 -14.3°
